OneWeb SL0571

operational
NORAD ID: 55150 Int'l Des: 2023-004 Owner: ONEWEBN Country: UK Constellation: oneweb
LEOCIRCULARPOLARONEWEB_TYPE

Über OneWeb SL0571

Beschreibung wird geladen...

Live-Position

3D-Globus wird geladen...

Nächste Überflüge

Höhenverlauf

Altitude vs Time

uPlot chart will show altitude changes over time

Zweizeiliger Elementsatz

1 55150U 23004L 25306.25019669 .00000077 00000-0 16273-3 0 9995
2 55150 87.9209 20.5628 0003067 88.0456 272.1028 13.18688128139790
Epoch: 2. Nov. 2025 • Age: 21 hours

Aktueller Status

Höhe 1201.0 km
Geschwindigkeit 7.26 km/s
Subsatellitenpunkt 80.44°N, 107.33°E
Startdatum 10. Jan. 2023
Alter 2.8 years
Typ internet

Technische Details

Klassifizierung Payload
Masse 148.00 kg
Trockenmasse 140.00 kg
Gesamtmasse 148.00 kg
Länge 1.30 m
Durchmesser 1.00 m
Spannweite 5.00 m
Form Trapezoid+2 pan
Hersteller ONEWUS
Bus-Typ ARROW
Phasenstatus In Orbit
Besitzer/Staat ONEWEBN/UK

Große Konstellationen

Loading constellations...